Location: Asheville, NC
(35.6000°N, 82.5500°W)
Time: 06:25:19
(UTC-04:00)

FO-29 - Visible Passes

Search period start: 22 July 2018 00:00
Search period end: 01 August 2018 00:00
Orbit: 800 x 1322 km, 98.5° (Epoch: 21 July)

Date Brightness Start Highest point End Pass type
(mag) Time Alt. Az. Time Alt. Az. Time Alt. Az.
22 Jul 11.4 21:01:27 10° N 21:07:51 44° WNW 21:14:52 10° SW visible
23 Jul 12.7 21:52:54 10° NNW 21:57:26 19° WNW 22:02:15 10° WSW visible
24 Jul 11.3 20:56:21 10° N 21:02:57 47° WNW 21:10:09 10° SW visible
25 Jul 12.7 21:47:40 10° NNW 21:52:33 21° WNW 21:57:44 10° WSW visible
27 Jul 12.6 21:42:27 10° NNW 21:47:41 22° WNW 21:53:12 10° WSW visible
29 Jul 12.5 21:37:17 10° NNW 21:42:48 24° WNW 21:48:37 10° WSW visible
30 Jul 12.5 06:03:39 10° E 06:06:47 16° ENE 06:10:04 10° NNE visible
31 Jul 12.4 21:32:10 10° NNW 21:37:56 26° WNW 21:44:02 10° WSW visible
